Niagara Falls, NY

4:12 AM EDT on July 23, 2017 (GMT -0400)
Niagara Falls International

Weather History for KIAG - November, 2012

Change the Weather History Date:

Monday, November 19, 2012

  Actual Average Record
Temperature  
Mean Temperature 40 °F -  
Max Temperature 51 °F 45 °F 63 °F (1991)
Min Temperature 28 °F 30 °F 15 °F (2014)
Degree Days  
Heating Degree Days 26    
Moisture  
Dew Point 31 °F    
Average Humidity 79    
Maximum Humidity 89    
Minimum Humidity 52    
Precipitation  
Precipitation 0.00 in - - ()
Sea Level Pressure  
Sea Level Pressure 30.40 in    
Wind  
Wind Speed 1 mph (ENE)    
Max Wind Speed 6 mph    
Max Gust Speed -    
Visibility 8 miles    
Events      
Averages and records for this station are not official NWS values.
T = Trace of Precipitation, MM = Missing Value Source: NWS Daily Summary

Daily Weather History Graph

Daily Weather History Graph

Search for Another Location

Airport or City:

Trip Planner

Search our weather history database for the weather conditions in past years. The results will help you decide how hot, cold, wet, or windy it might be!

Date:

Astronomy

Nov. 19, 2012 Rise Set
Actual Time 7:14 AM EST 4:48 PM EST
Civil Twilight 6:43 AM EST 5:19 PM EST
Nautical Twilight 6:08 AM EST 5:53 PM EST
Astronomical Twilight 5:34 AM EST 6:27 PM EST
Moon 12:12 PM EST (11/19) 11:17 PM EST (11/19)
Length of Visible Light 10h 36m
Length of Day
9h 34m
Waxing Crescent, 40% of the Moon is Illuminated
Nov 19
Waxing Crescent
Nov 20
First Quarter
Nov 28
Full
Dec 6
Last Quarter
Dec 13
New

Hourly Weather History & Observations

Time (EST) Temp. Windchill Dew Point Humidity Pressure Visibility Wind Dir Wind Speed Gust Speed Precip Events Conditions
12:53 AM 32.0 °F - 28.9 °F 88% 30.49 in 5.0 mi Calm Calm - N/A   Clear
1:53 AM 30.0 °F - 27.0 °F 88% 30.49 in 5.0 mi Calm Calm - N/A   Clear
2:53 AM 30.9 °F 27.5 °F 27.0 °F 85% 30.49 in 6.0 mi East 3.5 mph - N/A   Clear
3:53 AM 28.9 °F 25.2 °F 25.0 °F 85% 30.48 in 6.0 mi East 3.5 mph - N/A   Clear
4:53 AM 28.9 °F - 25.0 °F 85% 30.48 in 7.0 mi Calm Calm - N/A   Clear
5:53 AM 28.0 °F - 25.0 °F 88% 30.48 in 6.0 mi Calm Calm - N/A   Clear
6:53 AM 28.0 °F - 24.1 °F 85% 30.48 in 5.0 mi Calm Calm - N/A   Clear
7:01 AM 28.4 °F - 24.8 °F 86% 30.43 in 7.0 mi Calm Calm - N/A   Scattered Clouds
7:53 AM 30.0 °F - 26.1 °F 85% 30.47 in 7.0 mi Calm Calm - N/A   Scattered Clouds
8:53 AM 36.0 °F - 30.9 °F 82% 30.47 in 7.0 mi Calm Calm - N/A   Scattered Clouds
9:53 AM 42.1 °F 39.2 °F 35.1 °F 76% 30.45 in 8.0 mi South 4.6 mph - N/A   Mostly Cloudy
10:53 AM 45.0 °F - 35.1 °F 68% 30.44 in 8.0 mi Calm Calm - N/A   Mostly Cloudy
11:53 AM 46.9 °F - 34.0 °F 61% 30.41 in 8.0 mi Calm Calm - N/A   Mostly Cloudy
12:53 PM 50.0 °F - 35.1 °F 57% 30.38 in 10.0 mi Calm Calm - N/A   Mostly Cloudy
1:53 PM 50.0 °F - 34.0 °F 54% 30.35 in 9.0 mi Calm Calm - N/A   Mostly Cloudy
2:53 PM 51.1 °F - 34.0 °F 52% 30.34 in 9.0 mi Calm Calm - N/A   Mostly Cloudy
3:53 PM 46.9 °F - 37.0 °F 68% 30.34 in 10.0 mi NNE 5.8 mph - N/A   Mostly Cloudy
4:53 PM 41.0 °F 38.0 °F 35.1 °F 79% 30.35 in 10.0 mi North 4.6 mph - N/A   Mostly Cloudy
5:53 PM 39.0 °F 36.8 °F 34.0 °F 82% 30.35 in 10.0 mi NNE 3.5 mph - N/A   Mostly Cloudy
6:53 PM 39.0 °F 34.8 °F 35.1 °F 86% 30.34 in 10.0 mi ENE 5.8 mph - N/A   Mostly Cloudy
7:53 PM 37.9 °F 34.4 °F 34.0 °F 86% 30.32 in 10.0 mi ENE 4.6 mph - N/A   Overcast
8:53 PM 37.0 °F 34.5 °F 34.0 °F 89% 30.31 in 10.0 mi East 3.5 mph - N/A   Overcast
9:53 PM 37.9 °F 35.5 °F 34.0 °F 86% 30.28 in 10.0 mi East 3.5 mph - N/A   Overcast
10:53 PM 34.0 °F - 30.9 °F 89% 30.26 in 10.0 mi Calm Calm - N/A   Overcast
11:53 PM 36.0 °F - 32.0 °F 86% 30.26 in 5.0 mi Calm Calm - N/A   Clear